Multibeam Report for FK140613


Ship Name: Falkor
Chief Scientist: Goetze, Erica
University of Hawaii
Source Organization: UNOLS R2R
Start Date: 2014-06-13
End Date: 2014-06-19


View ISO Metadata

Visit the full NCEI Bathymetry Viewer


Multibeam Bathymetry

Cruise Details

Project: Net Gains at Station ALOHA
Instrument: Kongsberg EM302 and EM710

Data Quality

Number of Files: 98
Number of Records: 237347
BATHYMETRY DATA Quantity Percentage
Number of Beams 99025200 100%
Number of Good Beams 93505198 94.43%
Number of Zero Beams 0 0%
Number of Flagged Beams 5520002 5.57%

Navigation Totals

Total Time: 84.0325 hours
Total Track Length: 1467.9527 km
Average Speed: 17.469 km/hr (9.4325 knots)

Cruise Bounds

Northern Extent: 21.48602
Southern Extent: 21.172356
Western Extent: -157.87173
Eastern Extent: -157.15489

Limits

Minimum Sonar Depth 2.1854 Maximum Sonar Depth 8.2479
Minimum Altitude 8.0303 Maximum Altitude 6197.7764
Minimum Depth 13.507 Maximum Depth 7386.2979

File Information

Full Resolution Bathymetry as collected (raw): 95

Files File Size Description
0000_20140617_200025_FK140418_EM302.all.mb58.gz 4.21MB Kongsberg multibeam vendor format
0001_20140617_202032_FK140418_EM302.all.mb58.gz 103.49MB Kongsberg multibeam vendor format
0002_20140617_212036_FK140418_EM302.all.mb58.gz 54.87MB Kongsberg multibeam vendor format
0003_20140617_222035_FK140418_EM302.all.mb58.gz 48.17MB Kongsberg multibeam vendor format
0004_20140617_232036_FK140418_EM302.all.mb58.gz 64.52MB Kongsberg multibeam vendor format
0005_20140618_002036_FK140418_EM302.all.mb58.gz 101.30MB Kongsberg multibeam vendor format
0006_20140618_012034_FK140418_EM302.all.mb58.gz 105.39MB Kongsberg multibeam vendor format
0007_20140618_022035_FK140418_EM302.all.mb58.gz 106.27MB Kongsberg multibeam vendor format
0008_20140618_032035_FK140418_EM302.all.mb58.gz 71.93MB Kongsberg multibeam vendor format
0009_20140618_042038_FK140418_EM302.all.mb58.gz 86.45MB Kongsberg multibeam vendor format
0010_20140618_052034_FK140418_EM302.all.mb58.gz 108.12MB Kongsberg multibeam vendor format
0011_20140618_062036_FK140418_EM302.all.mb58.gz 110.52MB Kongsberg multibeam vendor format
0012_20140618_072035_FK140418_EM302.all.mb58.gz 108.49MB Kongsberg multibeam vendor format
0013_20140618_082036_FK140418_EM302.all.mb58.gz 97.17MB Kongsberg multibeam vendor format
0014_20140618_092035_FK140418_EM302.all.mb58.gz 87.43MB Kongsberg multibeam vendor format
0015_20140618_102036_FK140418_EM302.all.mb58.gz 107.34MB Kongsberg multibeam vendor format
0016_20140618_112035_FK140418_EM302.all.mb58.gz 36.63MB Kongsberg multibeam vendor format
0017_20140618_113958_FK140418_EM302.all.mb58.gz 415.8KB Kongsberg multibeam vendor format
0018_20140618_115652_FK140418_EM302.all.mb58.gz 117.80MB Kongsberg multibeam vendor format
0019_20140618_125651_FK140418_EM302.all.mb58.gz 109.83MB Kongsberg multibeam vendor format
0020_20140618_135652_FK140418_EM302.all.mb58.gz 106.44MB Kongsberg multibeam vendor format
0021_20140618_145651_FK140418_EM302.all.mb58.gz 116.43MB Kongsberg multibeam vendor format
0022_20140618_155650_FK140418_EM302.all.mb58.gz 115.98MB Kongsberg multibeam vendor format
0023_20140618_165652_FK140418_EM302.all.mb58.gz 110.59MB Kongsberg multibeam vendor format
0024_20140618_175652_FK140418_EM302.all.mb58.gz 125.17MB Kongsberg multibeam vendor format
0025_20140618_185653_FK140418_EM302.all.mb58.gz 78.33MB Kongsberg multibeam vendor format
0026_20140618_195657_FK140418_EM302.all.mb58.gz 58.00MB Kongsberg multibeam vendor format
0027_20140618_205651_FK140418_EM302.all.mb58.gz 51.61MB Kongsberg multibeam vendor format
0028_20140618_215652_FK140418_EM302.all.mb58.gz 117.15MB Kongsberg multibeam vendor format
0029_20140618_225653_FK140418_EM302.all.mb58.gz 124.69MB Kongsberg multibeam vendor format
0030_20140618_235651_FK140418_EM302.all.mb58.gz 148.15MB Kongsberg multibeam vendor format
0031_20140619_005652_FK140418_EM302.all.mb58.gz 147.41MB Kongsberg multibeam vendor format
0032_20140619_015652_FK140418_EM302.all.mb58.gz 144.02MB Kongsberg multibeam vendor format
0033_20140619_025653_FK140418_EM302.all.mb58.gz 144.12MB Kongsberg multibeam vendor format
0034_20140619_035653_FK140418_EM302.all.mb58.gz 140.10MB Kongsberg multibeam vendor format
0035_20140619_045652_FK140418_EM302.all.mb58.gz 160.64MB Kongsberg multibeam vendor format
0036_20140619_055652_FK140418_EM302.all.mb58.gz 118.54MB Kongsberg multibeam vendor format
0037_20140619_065654_FK140418_EM302.all.mb58.gz 118.63MB Kongsberg multibeam vendor format
0038_20140619_075654_FK140418_EM302.all.mb58.gz 164.80MB Kongsberg multibeam vendor format
0039_20140619_085653_FK140418_EM302.all.mb58.gz 168.67MB Kongsberg multibeam vendor format
0040_20140619_095654_FK140418_EM302.all.mb58.gz 123.85MB Kongsberg multibeam vendor format
0041_20140619_105653_FK140418_EM302.all.mb58.gz 161.36MB Kongsberg multibeam vendor format
0042_20140619_115653_FK140418_EM302.all.mb58.gz 218.29MB Kongsberg multibeam vendor format
0043_20140619_125654_FK140418_EM302.all.mb58.gz 156.82MB Kongsberg multibeam vendor format
0044_20140619_135653_FK140418_EM302.all.mb58.gz 120.21MB Kongsberg multibeam vendor format
0045_20140619_145654_FK140418_EM302.all.mb58.gz 20.38MB Kongsberg multibeam vendor format
0046_20140619_150759_FK140418_EM302.all.mb58.gz 114.98MB Kongsberg multibeam vendor format
0047_20140619_160759_FK140418_EM302.all.mb58.gz 120.45MB Kongsberg multibeam vendor format
0048_20140619_170759_FK140418_EM302.all.mb58.gz 24.79MB Kongsberg multibeam vendor format
9999.all.mb58.gz 70.7KB Kongsberg multibeam vendor format
0000_20140617_200021_FK140418_EM710.all.mb58.gz 5.25MB Kongsberg multibeam vendor format
0001_20140617_200405_FK140418_EM710.all.mb58.gz 260.93MB Kongsberg multibeam vendor format
0002_20140617_210408_FK140418_EM710.all.mb58.gz 48.36MB Kongsberg multibeam vendor format
0003_20140617_220405_FK140418_EM710.all.mb58.gz 32.45MB Kongsberg multibeam vendor format
0004_20140617_234941_FK140418_EM710.all.mb58.gz 57.04MB Kongsberg multibeam vendor format
0005_20140618_004942_FK140418_EM710.all.mb58.gz 57.84MB Kongsberg multibeam vendor format
0006_20140618_014942_FK140418_EM710.all.mb58.gz 57.81MB Kongsberg multibeam vendor format
0007_20140618_024942_FK140418_EM710.all.mb58.gz 55.83MB Kongsberg multibeam vendor format
0008_20140618_034943_FK140418_EM710.all.mb58.gz 2.50MB Kongsberg multibeam vendor format
0009_20140618_043927_FK140418_EM710.all.mb58.gz 57.85MB Kongsberg multibeam vendor format
0010_20140618_053929_FK140418_EM710.all.mb58.gz 59.02MB Kongsberg multibeam vendor format
0011_20140618_063928_FK140418_EM710.all.mb58.gz 60.98MB Kongsberg multibeam vendor format
0012_20140618_073929_FK140418_EM710.all.mb58.gz 59.52MB Kongsberg multibeam vendor format
0013_20140618_083929_FK140418_EM710.all.mb58.gz 53.68MB Kongsberg multibeam vendor format
0014_20140618_093929_FK140418_EM710.all.mb58.gz 58.69MB Kongsberg multibeam vendor format
0015_20140618_103929_FK140418_EM710.all.mb58.gz 61.46MB Kongsberg multibeam vendor format
0016_20140618_113929_FK140418_EM710.all.mb58.gz 8.91MB Kongsberg multibeam vendor format
0017_20140618_115731_FK140418_EM710.all.mb58.gz 63.43MB Kongsberg multibeam vendor format
0018_20140618_125731_FK140418_EM710.all.mb58.gz 60.45MB Kongsberg multibeam vendor format
0019_20140618_135732_FK140418_EM710.all.mb58.gz 61.09MB Kongsberg multibeam vendor format
0020_20140618_145731_FK140418_EM710.all.mb58.gz 63.56MB Kongsberg multibeam vendor format
0021_20140618_155731_FK140418_EM710.all.mb58.gz 72.47MB Kongsberg multibeam vendor format
0022_20140618_165732_FK140418_EM710.all.mb58.gz 71.08MB Kongsberg multibeam vendor format
0023_20140618_175732_FK140418_EM710.all.mb58.gz 91.49MB Kongsberg multibeam vendor format
0024_20140618_185731_FK140418_EM710.all.mb58.gz 46.73MB Kongsberg multibeam vendor format
0025_20140618_203506_FK140418_EM710.all.mb58.gz 32.55MB Kongsberg multibeam vendor format
0026_20140618_214919_FK140418_EM710.all.mb58.gz 33.95MB Kongsberg multibeam vendor format
0027_20140618_224919_FK140418_EM710.all.mb58.gz 86.82MB Kongsberg multibeam vendor format
0028_20140618_234918_FK140418_EM710.all.mb58.gz 155.31MB Kongsberg multibeam vendor format
0029_20140619_004918_FK140418_EM710.all.mb58.gz 136.44MB Kongsberg multibeam vendor format
0030_20140619_014918_FK140418_EM710.all.mb58.gz 170.00MB Kongsberg multibeam vendor format
0031_20140619_024920_FK140418_EM710.all.mb58.gz 131.78MB Kongsberg multibeam vendor format
0032_20140619_034919_FK140418_EM710.all.mb58.gz 180.40MB Kongsberg multibeam vendor format
0033_20140619_044919_FK140418_EM710.all.mb58.gz 208.13MB Kongsberg multibeam vendor format
0034_20140619_054919_FK140418_EM710.all.mb58.gz 66.54MB Kongsberg multibeam vendor format
0035_20140619_064920_FK140418_EM710.all.mb58.gz 69.33MB Kongsberg multibeam vendor format
0036_20140619_074919_FK140418_EM710.all.mb58.gz 160.43MB Kongsberg multibeam vendor format
0037_20140619_084919_FK140418_EM710.all.mb58.gz 234.35MB Kongsberg multibeam vendor format
0038_20140619_094919_FK140418_EM710.all.mb58.gz 85.56MB Kongsberg multibeam vendor format
0039_20140619_104920_FK140418_EM710.all.mb58.gz 146.90MB Kongsberg multibeam vendor format
0040_20140619_114920_FK140418_EM710.all.mb58.gz 339.74MB Kongsberg multibeam vendor format
0041_20140619_124919_FK140418_EM710.all.mb58.gz 233.45MB Kongsberg multibeam vendor format
0042_20140619_134920_FK140418_EM710.all.mb58.gz 133.79MB Kongsberg multibeam vendor format
0043_20140619_144919_FK140418_EM710.all.mb58.gz 18.89MB Kongsberg multibeam vendor format
9999.all.mb58.gz 22.7KB Kongsberg multibeam vendor format

Metadata Files: 3

Files File Size Description
FK140613_Multibeam.xml NGDC created ISO metadata
em302_bag_info.tar.gz 3.1KB Additional cruise information
em710_bag_info.tar.gz 2.9KB Additional cruise information